TimeCDT,TemperatureF,Dew PointF,Humidity,Sea Level PressureIn,VisibilityMPH,Wind Direction,Wind SpeedMPH,Gust SpeedMPH,PrecipitationIn,Events,Conditions,WindDirDegrees,DateUTC
12:15 AM,57.2,42.8,59,30.02,10.0,Calm,Calm,-,N/A,,Clear,0,2013-06-15 05:15:00
12:35 AM,57.2,42.8,59,30.03,10.0,Calm,Calm,-,N/A,,Clear,0,2013-06-15 05:35:00
12:55 AM,57.2,42.8,59,30.02,10.0,Calm,Calm,-,N/A,,Scattered Clouds,0,2013-06-15 05:55:00
1:15 AM,55.4,44.6,67,30.03,10.0,Calm,Calm,-,N/A,,Scattered Clouds,0,2013-06-15 06:15:00
1:35 AM,53.6,46.4,77,30.03,10.0,SW,4.6,-,N/A,,Scattered Clouds,230,2013-06-15 06:35:00
1:55 AM,57.2,46.4,67,30.02,10.0,SW,3.5,-,N/A,,Scattered Clouds,220,2013-06-15 06:55:00
2:15 AM,57.2,44.6,63,30.02,10.0,SW,3.5,-,N/A,,Partly Cloudy,230,2013-06-15 07:15:00
2:35 AM,55.4,46.4,72,30.02,10.0,SW,4.6,-,N/A,,Partly Cloudy,230,2013-06-15 07:35:00
2:55 AM,55.4,46.4,72,30.01,10.0,Calm,Calm,-,N/A,,Scattered Clouds,0,2013-06-15 07:55:00
3:15 AM,55.4,46.4,72,30.02,10.0,Calm,Calm,-,N/A,,Mostly Cloudy,0,2013-06-15 08:15:00
3:35 AM,55.4,46.4,72,30.02,10.0,Calm,Calm,-,N/A,,Overcast,0,2013-06-15 08:35:00
3:55 AM,55.4,48.2,77,30.02,10.0,Calm,Calm,-,N/A,,Overcast,0,2013-06-15 08:55:00
4:15 AM,55.4,48.2,77,30.02,10.0,Calm,Calm,-,N/A,,Overcast,0,2013-06-15 09:15:00
4:35 AM,55.4,48.2,77,30.01,10.0,Calm,Calm,-,N/A,,Overcast,0,2013-06-15 09:35:00
4:55 AM,55.4,48.2,77,30.01,10.0,Calm,Calm,-,N/A,,Overcast,0,2013-06-15 09:55:00
5:15 AM,55.4,51.8,88,30.01,10.0,Calm,Calm,-,N/A,,Overcast,0,2013-06-15 10:15:00
5:35 AM,55.4,48.2,77,30.00,10.0,SW,3.5,-,N/A,,Overcast,230,2013-06-15 10:35:00
5:55 AM,57.2,48.2,72,30.00,10.0,Calm,Calm,-,N/A,,Overcast,0,2013-06-15 10:55:00
6:15 AM,57.2,48.2,72,30.01,10.0,WSW,3.5,-,N/A,,Overcast,240,2013-06-15 11:15:00
6:35 AM,59.0,50.0,72,30.00,10.0,SW,5.8,-,N/A,,Overcast,220,2013-06-15 11:35:00
6:55 AM,59.0,51.8,77,30.00,10.0,SW,4.6,-,N/A,,Overcast,220,2013-06-15 11:55:00
7:15 AM,60.8,51.8,72,30.01,10.0,Calm,Calm,-,N/A,,Overcast,0,2013-06-15 12:15:00
7:35 AM,60.8,51.8,72,30.00,10.0,WSW,3.5,-,N/A,,Overcast,250,2013-06-15 12:35:00
7:55 AM,60.8,51.8,72,30.00,10.0,Calm,Calm,-,N/A,,Overcast,0,2013-06-15 12:55:00
8:15 AM,60.8,51.8,72,29.99,10.0,Calm,Calm,-,N/A,,Overcast,0,2013-06-15 13:15:00
8:35 AM,62.6,53.6,72,29.98,10.0,SSE,3.5,-,N/A,,Overcast,160,2013-06-15 13:35:00
8:55 AM,62.6,51.8,68,29.98,10.0,South,3.5,-,N/A,,Overcast,170,2013-06-15 13:55:00
9:15 AM,62.6,53.6,72,29.99,10.0,South,4.6,-,N/A,,Overcast,180,2013-06-15 14:15:00
9:35 AM,62.6,53.6,72,29.98,10.0,South,4.6,-,N/A,,Overcast,190,2013-06-15 14:35:00
9:55 AM,62.6,53.6,72,29.97,10.0,SE,3.5,-,N/A,,Mostly Cloudy,140,2013-06-15 14:55:00
10:15 AM,62.6,53.6,72,29.96,10.0,SSE,5.8,-,N/A,,Scattered Clouds,150,2013-06-15 15:15:00
10:35 AM,62.6,53.6,72,29.97,10.0,Calm,Calm,-,N/A,,Scattered Clouds,0,2013-06-15 15:35:00
10:55 AM,62.6,55.4,77,29.96,8.0,SSE,5.8,-,N/A,,Mostly Cloudy,150,2013-06-15 15:55:00
11:15 AM,60.8,55.4,82,29.95,10.0,South,8.1,-,0.01,,Mostly Cloudy,170,2013-06-15 16:15:00
11:35 AM,60.8,57.2,88,29.92,8.0,SE,8.1,-,0.02,,Mostly Cloudy,140,2013-06-15 16:35:00
11:55 AM,60.8,57.2,88,29.98,10.0,North,5.8,-,0.03,,Overcast,10,2013-06-15 16:55:00
12:15 PM,59.0,57.2,94,29.95,9.0,East,4.6,-,N/A,,Mostly Cloudy,100,2013-06-15 17:15:00
12:35 PM,62.6,59.0,88,29.96,10.0,East,6.9,-,N/A,,Scattered Clouds,80,2013-06-15 17:35:00
12:55 PM,62.6,57.2,82,29.95,10.0,SSE,8.1,-,N/A,,Scattered Clouds,160,2013-06-15 17:55:00
1:15 PM,64.4,59.0,83,29.95,10.0,South,4.6,-,N/A,,Scattered Clouds,180,2013-06-15 18:15:00
1:35 PM,68.0,60.8,78,29.94,10.0,South,5.8,-,N/A,,Mostly Cloudy,190,2013-06-15 18:35:00
1:55 PM,66.2,60.8,83,29.95,10.0,SW,4.6,-,N/A,,Overcast,220,2013-06-15 18:55:00
2:15 PM,68.0,60.8,78,29.95,10.0,WSW,4.6,-,N/A,,Overcast,240,2013-06-15 19:15:00
2:35 PM,66.2,60.8,83,29.95,10.0,South,5.8,-,N/A,,Overcast,190,2013-06-15 19:35:00
2:55 PM,66.2,60.8,83,29.94,10.0,SW,3.5,-,N/A,,Overcast,220,2013-06-15 19:55:00
3:15 PM,66.2,62.6,88,29.93,9.0,South,4.6,-,N/A,,Overcast,180,2013-06-15 20:15:00
3:35 PM,66.2,62.6,88,29.91,10.0,SSE,6.9,-,N/A,,Overcast,150,2013-06-15 20:35:00
3:55 PM,66.2,60.8,83,29.90,10.0,SSE,6.9,-,N/A,,Overcast,160,2013-06-15 20:55:00
4:15 PM,66.2,60.8,83,29.89,10.0,South,6.9,-,N/A,,Overcast,170,2013-06-15 21:15:00
4:35 PM,66.2,60.8,83,29.89,10.0,South,6.9,-,N/A,,Overcast,170,2013-06-15 21:35:00
4:55 PM,66.2,60.8,83,29.89,10.0,South,6.9,-,N/A,,Overcast,180,2013-06-15 21:55:00
5:15 PM,64.4,59.0,83,29.87,10.0,SE,5.8,-,N/A,,Overcast,140,2013-06-15 22:15:00
5:35 PM,64.4,59.0,83,29.87,10.0,SSE,4.6,-,N/A,,Overcast,150,2013-06-15 22:35:00
5:55 PM,62.6,59.0,88,29.86,10.0,SSE,3.5,-,N/A,,Overcast,160,2013-06-15 22:55:00
6:15 PM,62.6,57.2,82,29.86,10.0,South,5.8,-,N/A,,Overcast,170,2013-06-15 23:15:00
6:35 PM,64.4,57.2,77,29.85,10.0,SE,3.5,-,N/A,,Overcast,130,2013-06-15 23:35:00
6:55 PM,62.6,59.0,88,29.85,10.0,SSE,3.5,-,N/A,,Overcast,150,2013-06-15 23:55:00
7:15 PM,62.6,59.0,88,29.85,10.0,Calm,Calm,-,N/A,,Overcast,0,2013-06-16 00:15:00
7:35 PM,62.6,59.0,88,29.85,10.0,ENE,3.5,-,N/A,,Overcast,70,2013-06-16 00:35:00
7:55 PM,62.6,59.0,88,29.85,5.0,Calm,Calm,-,N/A,,Overcast,0,2013-06-16 00:55:00
8:15 PM,60.8,59.0,94,29.84,3.0,ESE,3.5,-,N/A,,Overcast,110,2013-06-16 01:15:00
8:35 PM,62.6,60.8,94,29.82,3.0,SSE,3.5,-,N/A,,Overcast,150,2013-06-16 01:35:00
8:55 PM,59.0,57.2,94,29.83,4.0,NE,4.6,-,0.06,,Overcast,50,2013-06-16 01:55:00
9:15 PM,60.8,60.8,100,29.83,3.0,East,5.8,-,N/A,Thunderstorm,Overcast,80,2013-06-16 02:15:00
9:35 PM,60.8,59.0,94,29.85,3.0,North,5.8,-,0.01,Thunderstorm,Thunderstorm,360,2013-06-16 02:35:00
9:55 PM,60.8,59.0,94,29.86,3.0,South,6.9,-,0.12,Thunderstorm,Thunderstorm,180,2013-06-16 02:55:00
10:15 PM,62.6,60.8,94,29.84,2.5,ESE,4.6,-,0.05,Thunderstorm,Overcast,120,2013-06-16 03:15:00
10:35 PM,60.8,60.8,100,29.84,2.5,Calm,Calm,-,0.10,,Overcast,0,2013-06-16 03:35:00
10:55 PM,60.8,59.0,94,29.81,2.0,SE,3.5,-,0.13,,Overcast,130,2013-06-16 03:55:00
11:15 PM,60.8,60.8,100,29.81,2.0,Calm,Calm,-,N/A,,Mostly Cloudy,0,2013-06-16 04:15:00
11:35 PM,62.6,60.8,94,29.82,2.0,NW,3.5,-,N/A,,Scattered Clouds,310,2013-06-16 04:35:00
11:55 PM,60.8,59.0,94,29.80,1.8,NNW,4.6,-,N/A,,Mostly Cloudy,340,2013-06-16 04:55:00